Regional Weather Roundup
Issued by NWS

Home | Current Version | Previous Version | Graphics & Text | Print | Product List | Glossary On
Versions: 1 2 3 4 5 6 7 8 9 10 11 12 13 14 15 16 17 18 19 20 21 22 23 24 25 26 27 28 29 30 31 32 33 34 35 36 37 38 39 40 41 42 43 44 45 46 47 48 49 50
608
ASUS43 KFSD 240802
RWRSD

WEATHER ROUNDUP FOR SOUTH DAKOTA
NATIONAL WEATHER SERVICE SIOUX FALLS SD
200 AM CST FRI NOV 24 2017

NOTE: "FAIR" INDICATES FEW OR NO CLOUDS BELOW 12,000 FEET WITH NO
SIGNIFICANT WEATHER AND/OR OBSTRUCTIONS TO VISIBILITY.


SDZ001>005-009-010-012>017-240900-
NORTHWEST AND NORTH CENTRAL SOUTH DAKOTA

CITY           SKY/WX    TMP DP  RH WIND       PRES   REMARKS
FAITH            N/A     56  36  47 W15       29.50F
MOBRIDGE       CLOUDY    55  36  48 CALM      29.42F
$$

SDZ012>016-024>037-041>051-057-063-072>074-240900-
SOUTHWEST AND SOUTH CENTRAL SOUTH DAKOTA

CITY           SKY/WX    TMP DP  RH WIND       PRES   REMARKS
RAPID CTY ARPT CLEAR     58  33  39 W13       29.57F
PIERRE         CLEAR     48  37  65 W12       29.48F
CUSTER         CLEAR     50  30  46 W16G25    29.67F
ELLSWORTH AFB  CLEAR     54  31  42 W9        29.56F
PHILIP         CLEAR     47  38  71 W8        29.54F
PINE RIDGE     CLEAR     46  36  68 SW6       29.64F
SPEARFISH      FAIR      63  30  29 W21G32    29.58F
WINNER         FAIR      51  37  58 SW10      29.54F
$$

SDZ004>011-016>023-039-040-240900-
NORTHEAST SOUTH DAKOTA

CITY           SKY/WX    TMP DP  RH WIND       PRES   REMARKS
ABERDEEN       CLEAR     31  30  96 S6        29.42F WCI  25
WATERTOWN      CLEAR     38  35  89 S8        29.45F
BROOKINGS      CLEAR     45  38  76 S7        29.49F
SISSETON         N/A     54  39  57 SW21      29.37F
$$

SDZ017-020-022-023-036>040-048>070-240900-
SOUTHEAST SOUTH DAKOTA

CITY           SKY/WX    TMP DP  RH WIND       PRES   REMARKS
SIOUX FALLS    CLEAR     46  39  76 S3        29.51F
HURON          CLEAR     38  35  89 S6        29.46F
CHAMBERLAIN    CLEAR     47  39  73 SW6       29.51F
MITCHELL       CLEAR     49  39  68 CALM      29.50F
YANKTON        CLEAR     54  41  61 S8        29.52F
$$

ABBREVIATIONS USED IN REMARKS
   TC - TEMPERATURE IN CELSIUS
  WCI - WIND CHILL INDEX
   HX - HEAT INDEX
  VSB - VISIBILITY





USA.gov is the U.S. government's official web portal to all federal, state and local government web resources and services.